星链-31974 (STARLINK-31974 )

导读 | 豆包AI

STARLINK-31974是美国太空探索技术公司 SpaceX 星链互联网卫星星座的组成部分,于2024年5月28日8时发射入轨,服务全球低延迟宽带互联网覆盖,尤其为偏远地区、海洋与航空航线提供网络接入支持,属于星链组网阶段新补网卫星,延续了星座批量部署节奏,进一步完善星座覆盖能力。

基本信息
目录编号:
59885
目录名称:
STARLINK-31974
国际标识:
2024-100A
轨道中心:
EARTH
卫星名称:
星链-31974
卫星全名:
星链-31974 (STARLINK-31974 )
卫星状态:
在轨 (已飞行656 天)
发射日期:
2024-05-28 UTC
国别 :
美国 (US)
星等 :
--
轨道信息
数据来源 国际轨道数据
星历时间: 2026-03-15T16:34:03+0800
12小时前
查看轨道信息
半长轴: 6861.172km
偏心率: 0.0000464
轨道倾角: 43.004°
近地点辐角 300.774°
升交点赤经 93.392°
平近点角 59.307°
近地点: 482.716km
远地点: 483.354km
周期: 94.266分钟
每日圈数: 15.27585
详细信息
固有亮度:
5
最大亮度:
1.5
卫星平台:
Starlink v2.0 mini
覆盖范围:
全球
运营商:
太空探索技术公司
运营商所在国:
美国
制造商(研发单位):
太空探索技术公司
制造商所在国:
美国
使用方式:
暂无
卫星简介
星链(Starlink)计划是由太空探索技术公司(SpaceX)提出的一个巨型低轨卫星互联网星座项目,计划在2019年至2024年间在太空搭建由约1.2万颗卫星组成的“星链”网络,其中1584颗将部署在地球上空550千米处的近地轨道,并从2020年开始工作。该卫星仍在工作。
2D轨道图
3D轨道图
轨道高度分析图
轨道倾角分析图
轨道综合分析图
查看轨道综合分析图